Voltar ao catálogo

STARLINK-5604

AtivoComunicaçõesVLEO
NORAD 55420·PAYLOAD·🇺🇸 United States

Lançado Jan 31, 2023 de Vandenberg Space Force Base

Loading…

Próximas Passagens (próximas 24 horas)

TLE

AtualizadoSource: CelesTrak SupGP

Época: Sep 15, 2026, 01:29 UTC

1 55420C 23014AF  26258.06229167  .00025051  00000+0  20990-2 0  2584
2 55420  69.9993 287.0031 0003769 263.3206 125.6248 14.98322253    19

Acompanhe STARLINK-5604 em tempo real com AllMySat

Download on the App Store